View from above orbital plane
|
View from above satellite
|
Ground track
|
The orbit data is extracted from the following two-line orbital elements,
1 31702U 07027B 21100.12685788 0.00000400 00000-0 73674-4 0 06
2 31702 63.3482 117.5743 0433883 18.7197 341.2803 14.18908360 02
Epoch (UTC): | 10 April 2021 03:02:40 |
Eccentricity: | 0.0433883 |
inclination: | 63.3482° |
perigee height: | 516 km |
apogee height: | 1142 km |
right ascension of ascending node: | 117.5743° |
argument of perigee: | 18.7197° |
revolutions per day: | 14.18908360 |
mean anomaly at epoch: | 341.2803° |
orbit number at epoch: | 0 |
The dashed part of the orbit path shows where the satellite is in the earth's shadow,
|
|